This is the latest recevied weather packets stored in our database for station/object F1ZTH-10. If no packets are shown the sender has not sent any weather packets the latest 10 day(s).
| Time | Temp. | Humidity | Pressure | Rain* | Wind** | Luminosity | Snow |
|---|---|---|---|---|---|---|---|
| 1788202284 | 23.33° C | 47% | 980 hPa | - | - | - | - |
| 1788201384 | 23.89° C | 46% | 980 hPa | - | - | - | - |
| 1788200484 | 25° C | 45% | 980 hPa | - | - | - | - |
| 1788199584 | 26.11° C | 44% | 980 hPa | - | - | - | - |
| 1788198694 | 26.67° C | 43% | 980 hPa | - | - | - | - |
| 1788197800 | 28.89° C | 40% | 980 hPa | - | - | - | - |
| 1788196884 | 33.33° C | 36% | 980 hPa | - | - | - | - |
| 1788195984 | 35° C | 35% | 980 hPa | - | - | - | - |
| 1788195084 | 35° C | 36% | 980 hPa | - | - | - | - |
| 1788194184 | 33.89° C | 37% | 980 hPa | - | - | - | - |
| 1788193284 | 32.22° C | 39% | 980 hPa | - | - | - | - |
| 1788192384 | 32.78° C | 38% | 980 hPa | - | - | - | - |
| 1788191484 | 33.89° C | 37% | 980 hPa | - | - | - | - |
| 1788190584 | 33.89° C | 37% | 980 hPa | - | - | - | - |
| 1788189684 | 32.78° C | 39% | 980 hPa | - | - | - | - |
| 1788188784 | 31.11° C | 41% | 980 hPa | - | - | - | - |
| 1788187884 | 31.67° C | 40% | 980 hPa | - | - | - | - |
| 1788186984 | 32.78° C | 41% | 980 hPa | - | - | - | - |
| 1788186084 | 33.33° C | 39% | 980 hPa | - | - | - | - |
| 1788185183 | 32.78° C | 40% | 980 hPa | - | - | - | - |
| 1788184283 | 31.67° C | 41% | 980 hPa | - | - | - | - |
| 1788183383 | 31.11° C | 42% | 980 hPa | - | - | - | - |
| 1788182483 | 31.11° C | 43% | 981 hPa | - | - | - | - |
| 1788181583 | 30.56° C | 43% | 981 hPa | - | - | - | - |
| 1788180683 | 30.56° C | 44% | 981 hPa | - | - | - | - |
* Rain since midnight (hover to see other rain measurements)
** Current wind speed in m/s (hover to see current wind gust speed)